Weather History for Tri-Cities, TN

Change the Weather History Date:

Monday, January 13, 2014

  Actual Average Record
Temperature  
Mean Temperature 35 °F 35 °F  
Max Temperature 45 °F 45 °F 73 °F (2013)
Min Temperature 25 °F 25 °F 5 °F (1954)
Degree Days  
Heating Degree Days 30 30  
Month to date heating degree days 427 390  
Since 1 July heating degree days 2058 2119  
Cooling Degree Days 0 0  
Month to date cooling degree days 0 0  
Year to date cooling degree days 0 0  
Moisture  
Dew Point 29 °F    
Average Humidity 71    
Maximum Humidity 88    
Minimum Humidity 53    
Precipitation  
Precipitation 0.01 in 0.11 in 0.71 in (1951)
Month to date precipitation 1.38 1.37  
Year to date precipitation 1.38 1.37  
Snow  
Snow 0.00 in 0.10 in - ()
Month to date snowfall 0.5 1.8  
Since 1 July snowfall 1.9 4.5  
Snow Depth 0.00 in    
Sea Level Pressure  
Sea Level Pressure 29.99 in    
Wind  
Wind Speed 1 mph (NE)    
Max Wind Speed 7 mph    
Max Gust Speed 8 mph    
Visibility 10 miles    
Events Rain    
T = Trace of Precipitation, MM = Missing Value Source: NWS Daily Summary

Daily Weather History Graph

Daily Weather History Graph

Search for Another Location

Airport:

Trip Planner

Search our weather history database for the weather conditions in past years. The results will help you decide how hot, cold, wet, or windy it might be!

Date:

Astronomy

Jan. 13, 2014 Rise Set
Actual Time 7:41 AM EST 5:35 PM EST
Civil Twilight 7:12 AM EST 6:04 PM EST
Nautical Twilight 6:41 AM EST 6:35 PM EST
Astronomical Twilight 6:10 AM EST 7:06 PM EST
Moon 3:49 PM EST (1/13) 5:29 AM EST (1/13)
Length of Visible Light 10h 51m
Length of Day
9h 54m
Waxing Gibbous, 95% of the Moon is Illuminated
Jan 13
Waxing Gibbous
Jan 15
Full
Jan 24
Last Quarter
Jan 30
New
Feb 6
First Quarter

Hourly Weather History & Observations

Time (EST) Temp. Windchill Dew Point Humidity Pressure Visibility Wind Dir Wind Speed Gust Speed Precip Events Conditions
12:53 AM 28.9 °F - 24.1 °F 82% 30.10 in 10.0 mi Calm Calm - N/A   Clear
1:53 AM 28.9 °F - 24.1 °F 82% 30.09 in 10.0 mi Calm Calm - N/A   Clear
2:53 AM 27.0 °F - 23.0 °F 85% 30.09 in 10.0 mi Calm Calm - N/A   Clear
3:53 AM 26.1 °F - 21.9 °F 84% 30.08 in 10.0 mi Calm Calm - N/A   Clear
4:53 AM 26.1 °F - 21.9 °F 84% 30.09 in 10.0 mi Calm Calm - N/A   Partly Cloudy
5:53 AM 26.1 °F 20.5 °F 21.9 °F 84% 30.09 in 10.0 mi SSE 4.6 mph - N/A   Scattered Clouds
6:53 AM 25.0 °F - 21.9 °F 88% 30.09 in 10.0 mi Calm Calm - N/A   Scattered Clouds
7:53 AM 28.0 °F 24.2 °F 24.1 °F 85% 30.05 in 10.0 mi NNE 3.5 mph - N/A   Mostly Cloudy
8:53 AM 32.0 °F 28.7 °F 27.0 °F 82% 30.08 in 10.0 mi West 3.5 mph - N/A   Mostly Cloudy
9:53 AM 34.0 °F 31.0 °F 28.0 °F 79% 30.07 in 10.0 mi East 3.5 mph - N/A   Overcast
10:53 AM 37.0 °F - 28.9 °F 73% 30.07 in 10.0 mi Calm Calm - N/A   Overcast
11:53 AM 37.9 °F - 30.9 °F 76% 30.03 in 10.0 mi Calm Calm - N/A   Overcast
12:53 PM 42.1 °F - 30.0 °F 62% 29.98 in 10.0 mi Calm Calm - N/A   Overcast
1:53 PM 44.1 °F - 28.9 °F 55% 29.96 in 10.0 mi Calm Calm - N/A   Overcast
2:53 PM 44.1 °F - 30.0 °F 58% 29.95 in 10.0 mi Calm Calm - N/A   Overcast
3:53 PM 44.1 °F - 30.9 °F 60% 29.96 in 10.0 mi Calm Calm - N/A   Overcast
4:53 PM 44.1 °F 42.5 °F 32.0 °F 63% 29.92 in 10.0 mi North 3.5 mph - N/A   Overcast
5:53 PM 42.1 °F - 32.0 °F 67% 29.92 in 10.0 mi Calm Calm - N/A   Overcast
6:53 PM 43.0 °F 41.3 °F 33.1 °F 68% 29.88 in 10.0 mi East 3.5 mph - 0.00 in Rain Light Rain
7:53 PM 42.1 °F - 34.0 °F 73% 29.87 in 10.0 mi Calm Calm - 0.00 in   Overcast
8:53 PM 42.1 °F - 36.0 °F 79% 29.87 in 10.0 mi Calm Calm - 0.00 in   Overcast
9:53 PM 42.1 °F - 35.1 °F 76% 29.85 in 10.0 mi Calm Calm - N/A   Overcast
10:53 PM 44.1 °F - 36.0 °F 73% 29.85 in 10.0 mi Calm Calm - N/A   Overcast
11:53 PM 44.1 °F 42.5 °F 37.0 °F 76% 29.83 in 10.0 mi WNW 3.5 mph - 0.01 in Rain Light Rain